Wind_Speed
16 16 16 17 16 16 16 14 14 11 9 7 6 5 5 4 4 5 6 6 6 7 7 6 5 5 5 5 5 4 4 4 4 3 3 3 3 3 3 3 3 3 3
16 15 16 16 17 17 16 15 13 11 9 7 6 5 5 5 4 5 6 6 6 7 7 6 6 6 6 6 6 5 5 5 5 5 5 5 5 5 5 5 6 5 5
16 16 16 17 17 17 16 15 12 10 6 6 5 5 4 4 4 5 6 6 6 7 7 8 7 7 7 7 7 6 6 7 7 7 7 6 6 7 6 7 7 8 8
16 16 17 17 16 17 16 13 11 8 4 4 5 4 4 5 5 5 6 6 7 7 8 9 9 9 8 8 8 8 8 8 8 9 9 8 8 8 8 8 8 9 10
16 16 16 16 16 16 14 11 10 6 4 2 3 4 4 5 5 5 6 7 7 7 8 8 9 10 10 9 9 9 10 10 10 10 10 10 10 10 10 11 11 11 12
16 15 15 15 15 15 13 11 9 6 4 3 3 4 4 5 5 5 6 7 7 7 7 7 9 10 10 10 10 11 10 11 12 12 12 12 13 13 13 13 13 13 14
15 15 15 15 15 15 13 11 9 6 5 4 3 3 4 5 5 6 7 7 8 8 8 9 10 10 10 11 12 12 12 12 12 12 13 13 14 14 15 15 16 16 16
15 14 14 14 14 14 13 11 9 7 5 4 4 4 5 5 5 6 7 7 8 9 9 10 10 11 11 11 12 11 12 12 13 14 14 15 15 16 17 17 18 18 19
13 13 13 14 14 13 11 10 8 7 6 6 5 4 4 5 5 5 6 7 7 8 9 10 11 11 12 12 12 12 13 14 14 14 15 16 17 18 18 19 19 20 21
13 14 13 13 13 12 10 9 9 8 8 6 5 4 5 5 5 5 6 7 8 8 8 10 11 12 12 12 14 15 15 15 15 16 16 17 18 18 19 20 20 21 22
14 14 13 13 13 11 10 10 10 9 9 7 6 6 6 6 6 7 7 8 9 9 9 10 11 12 13 14 16 16 15 16 17 17 17 18 18 19 19 19 20 21 22
14 14 14 13 12 11 11 11 11 10 10 9 8 7 7 7 7 8 9 9 10 11 11 11 12 13 13 14 15 15 15 17 18 18 19 19 19 20 20 20 21 22 23
14 14 14 13 12 12 12 12 11 11 11 10 9 9 9 9 10 10 10 11 12 13 13 13 13 14 15 16 16 16 16 18 18 19 19 20 20 21 21 22 23 24 25
14 14 14 14 13 13 13 12 12 12 12 11 10 10 10 10 11 12 12 13 14 15 15 14 14 15 16 17 18 18 18 19 19 20 20 20 21 22 22 23 24 26 27
16 15 14 14 14 14 14 14 14 14 13 12 11 11 12 12 13 13 13 15 15 16 16 16 17 17 17 18 19 20 20 20 21 21 21 22 23 23 24 25 26 27 28
17 16 16 15 15 15 15 14 15 14 14 14 13 13 13 13 13 14 14 15 15 15 16 16 17 18 18 19 20 20 21 21 21 22 23 24 25 25 26 27 28 29 30
18 18 17 17 17 17 17 16 15 15 15 15 15 15 15 14 14 15 15 16 16 15 16 17 18 19 19 20 20 20 21 22 23 24 25 25 26 26 27 28 29 29 30
19 19 18 17 17 17 18 17 17 17 16 17 16 16 15 16 16 17 17 17 17 17 17 19 19 20 21 21 21 22 23 23 24 24 25 26 27 28 28 28 29 30 30
20 20 19 19 18 18 19 18 17 18 18 17 18 18 18 18 19 19 19 19 20 20 20 21 21 21 22 22 23 24 24 25 25 26 27 28 28 29 30 30 31 32 32
22 21 21 21 20 19 19 19 19 20 20 20 20 20 20 20 21 21 21 22 23 22 22 23 23 23 24 25 25 25 26 26 27 27 28 29 30 31 32 32 33 33 34
24 24 24 23 22 22 21 21 21 21 22 21 22 22 22 22 22 23 23 24 24 23 23 23 24 25 26 27 27 27 27 28 28 29 29 30 31 32 32 33 33 34 34
25 26 26 25 24 24 24 23 23 23 23 23 23 23 23 24 24 25 25 25 25 26 25 26 26 27 27 28 28 28 28 29 30 31 31 31 31 32 33 33 33 33 33
26 26 26 26 26 26 26 25 25 25 25 24 24 25 25 26 27 26 27 27 27 27 27 28 28 28 28 29 29 29 30 31 31 32 32 32 31 32 33 33 33 33 33
27 27 27 27 27 27 27 27 26 26 26 26 27 27 28 28 29 28 29 29 29 29 29 29 29 29 29 30 31 31 32 32 32 32 32 32 33 34 34 34 33 33 33
29 28 28 28 28 28 27 28 28 28 28 29 29 29 29 29 30 30 30 30 30 30 30 30 31 31 31 32 32 32 33 33 33 33 33 33 34 35 35 34 34 34 33
29 29 29 29 29 29 29 29 30 31 31 31 31 31 31 31 32 32 32 32 32 32 32 32 32 32 32 32 33 33 33 34 34 34 34 34 35 34 34 34 34 33 34
Wind_Direction
343 343 342 342 340 337 336 331 327 314 304 294 279 257 232 230 226 222 222 228 229 229 231 234 231 230 229 235 240 237 240 244 249 252 254 263 273 272 280 290 294 295 295
343 342 341 342 340 339 337 334 329 323 303 282 269 251 235 226 233 228 229 233 232 226 226 236 240 241 242 242 243 241 245 251 255 262 262 265 265 268 275 284 288 291 293
340 340 340 341 341 342 339 334 332 325 305 266 250 244 237 237 240 237 234 231 230 229 237 243 244 248 250 249 249 250 253 254 257 264 266 263 265 267 275 280 282 287 289
335 339 338 339 342 343 341 339 338 333 311 262 246 246 246 249 249 244 236 235 238 243 246 247 246 247 249 250 251 256 257 257 260 265 267 265 270 273 275 280 283 287 288
334 336 336 338 339 342 344 343 341 338 335 298 270 260 257 254 258 248 238 238 241 246 251 249 246 246 248 250 251 256 259 259 261 264 265 266 270 274 274 276 281 284 287
330 331 333 336 338 341 343 346 345 340 332 305 277 268 268 263 259 250 248 246 247 251 254 248 249 249 250 251 255 259 264 262 263 265 267 269 273 275 275 276 278 282 284
328 328 330 334 338 340 339 339 339 340 342 331 305 288 282 277 264 258 260 259 256 256 254 250 251 255 261 261 259 262 267 266 267 269 272 275 277 278 278 281 281 282 284
327 329 329 333 337 339 338 338 339 341 340 333 319 305 289 284 275 267 267 265 266 266 262 255 254 259 266 268 266 266 269 269 270 271 274 277 280 280 280 283 284 283 286
326 330 332 335 338 338 340 342 342 343 334 320 309 298 289 281 276 274 272 271 275 274 266 260 260 264 268 269 269 268 273 273 275 275 277 278 279 283 283 283 285 285 288
323 326 330 333 336 339 340 341 341 338 332 322 312 298 287 278 278 284 284 282 281 276 273 270 269 270 271 273 273 273 273 273 275 277 280 280 281 282 284 286 286 287 290
322 324 327 333 335 338 341 340 339 335 332 323 315 308 300 293 289 289 289 287 286 286 283 280 277 277 277 279 280 278 278 277 276 278 281 283 287 288 287 287 287 290 291
321 326 328 331 331 332 333 333 335 335 333 327 317 308 301 298 297 294 293 291 289 289 289 286 285 286 286 285 282 279 280 280 278 279 282 283 286 289 288 289 290 290 291
315 320 325 327 327 326 326 327 328 329 327 327 320 313 306 301 297 294 294 294 292 291 289 289 289 288 289 289 287 282 282 283 283 282 283 285 287 289 289 289 290 291 293
309 313 317 319 321 321 323 324 323 323 322 320 319 314 309 306 301 297 294 296 294 292 289 289 290 290 292 290 287 284 283 284 285 285 286 287 288 289 292 292 292 292 293
301 305 307 311 314 315 317 318 318 320 319 318 313 311 310 307 304 300 298 297 295 295 293 291 292 293 293 294 290 285 286 285 284 285 285 286 287 289 290 291 292 293 294
294 297 298 302 306 308 311 312 313 315 317 317 314 310 310 308 307 304 302 300 300 299 298 295 293 294 295 294 292 289 288 286 284 285 286 287 288 289 291 292 293 294 295
287 291 294 297 300 303 305 305 305 309 311 312 310 309 310 311 311 310 307 305 303 300 299 299 296 294 295 295 294 293 291 289 288 288 289 289 291 292 292 293 296 296 296
283 285 289 294 296 299 301 301 300 302 303 307 309 309 308 307 309 310 308 306 306 305 302 300 299 297 297 297 296 296 295 293 292 292 293 293 293 293 295 296 296 296 295
279 279 284 289 293 295 296 297 296 298 299 302 307 308 307 305 306 306 305 306 305 304 303 301 299 299 299 299 298 297 297 296 295 296 296 296 295 295 296 296 297 297 297
276 278 282 285 289 291 291 292 294 293 295 297 299 303 305 303 301 303 304 305 304 302 302 302 300 300 298 296 295 297 298 296 297 298 298 298 299 298 298 297 296 296 296
275 277 279 281 284 285 288 289 291 291 292 293 296 299 300 301 301 302 303 304 303 302 301 301 301 301 299 298 297 297 296 296 297 297 298 299 300 299 300 299 298 296 295
275 275 276 277 280 281 283 287 290 290 291 291 292 295 297 299 300 300 301 301 301 301 300 300 300 300 300 300 299 299 299 298 299 299 300 300 299 299 300 300 299 298 298
274 275 274 274 276 278 281 283 287 289 290 290 291 293 294 297 298 299 299 300 299 298 298 298 299 299 300 299 298 298 298 299 300 300 300 301 301 302 301 302 301 300 299
272 274 275 274 275 277 280 282 285 288 289 288 289 291 293 295 296 296 298 298 298 297 297 297 298 298 298 298 298 298 299 300 300 300 300 300 300 301 301 301 301 301 300
270 272 272 273 275 277 278 281 284 286 288 289 289 289 291 294 295 296 297 297 297 298 297 297 297 297 297 297 298 298 298 298 298 299 299 299 300 300 300 299 299 299 299
269 271 272 273 274 276 277 279 281 284 287 289 290 290 291 293 294 295 296 297 297 297 297 297 297 297 297 297 297 297 297 297 298 298 297 297 298 299 299 299 299 299 299
Height
5910 5907 5904 5901 5898 5896 5893 5891 5890 5889 5889 5889 5889 5890 5892 5893 5894 5895 5896 5897 5898 5899 5900 5901 5902 5903 5904 5904 5905 5906 5906 5907 5907 5908 5908 5908 5908 5908 5908 5908 5908 5908 5907
5909 5906 5904 5901 5898 5895 5893 5890 5888 5887 5887 5888 5888 5889 5891 5892 5893 5894 5895 5896 5897 5898 5899 5900 5901 5902 5903 5904 5904 5905 5905 5906 5906 5907 5907 5907 5908 5907 5907 5907 5907 5907 5906
5908 5906 5903 5900 5897 5894 5892 5889 5887 5886 5886 5886 5887 5889 5890 5891 5892 5893 5894 5895 5896 5897 5898 5899 5900 5901 5902 5903 5903 5904 5904 5904 5905 5905 5906 5906 5906 5906 5906 5906 5905 5905 5905
5906 5904 5902 5899 5897 5894 5891 5888 5886 5885 5884 5885 5886 5888 5889 5890 5891 5892 5893 5894 5895 5896 5897 5898 5899 5900 5901 5901 5902 5902 5902 5903 5903 5904 5904 5904 5904 5904 5904 5904 5904 5904 5903
5906 5904 5902 5899 5896 5893 5891 5888 5887 5885 5885 5885 5886 5887 5888 5889 5890 5891 5892 5893 5894 5894 5895 5896 5897 5898 5899 5899 5900 5900 5901 5901 5901 5902 5902 5902 5902 5902 5902 5902 5902 5902 5901
5905 5903 5901 5898 5895 5893 5891 5889 5887 5886 5885 5885 5886 5887 5887 5888 5889 5890 5891 5891 5892 5893 5893 5894 5895 5896 5897 5898 5898 5898 5898 5899 5899 5899 5899 5900 5900 5900 5899 5899 5899 5899 5898
5904 5902 5899 5897 5895 5893 5891 5889 5887 5886 5885 5885 5885 5886 5887 5887 5888 5889 5890 5890 5891 5891 5892 5893 5893 5894 5895 5895 5896 5896 5896 5896 5897 5897 5897 5897 5896 5896 5896 5896 5895 5895 5895
5903 5901 5898 5896 5894 5892 5890 5888 5887 5886 5886 5885 5885 5886 5886 5887 5887 5888 5888 5889 5889 5889 5890 5891 5891 5892 5892 5893 5893 5893 5893 5894 5894 5894 5894 5893 5893 5893 5892 5892 5891 5891 5891
5901 5899 5897 5895 5893 5892 5889 5888 5887 5886 5886 5885 5885 5885 5885 5886 5886 5887 5887 5887 5888 5888 5888 5889 5889 5890 5890 5890 5890 5890 5890 5891 5891 5890 5890 5890 5889 5889 5888 5888 5887 5887 5886
5900 5899 5896 5895 5893 5891 5890 5888 5887 5886 5885 5884 5884 5884 5884 5885 5885 5886 5886 5886 5886 5886 5886 5886 5887 5887 5887 5887 5887 5887 5887 5887 5887 5887 5886 5886 5885 5884 5884 5883 5882 5881 5880
5899 5897 5895 5894 5892 5891 5889 5888 5887 5886 5885 5884 5883 5883 5883 5883 5884 5884 5884 5884 5884 5884 5884 5884 5884 5884 5884 5884 5884 5883 5883 5883 5883 5882 5882 5882 5881 5880 5879 5878 5877 5876 5875
5898 5896 5894 5892 5892 5891 5889 5888 5887 5886 5885 5884 5883 5882 5882 5882 5882 5882 5882 5882 5882 5882 5882 5882 5882 5881 5881 5881 5880 5880 5879 5879 5878 5878 5877 5877 5876 5875 5874 5873 5872 5871 5869
5897 5895 5894 5892 5891 5890 5889 5888 5886 5885 5884 5883 5882 5881 5881 5881 5880 5880 5880 5880 5880 5880 5879 5879 5878 5878 5878 5877 5876 5876 5875 5875 5874 5873 5873 5872 5871 5870 5869 5867 5866 5865 5863
5895 5894 5893 5891 5890 5889 5888 5887 5886 5884 5883 5882 5881 5881 5880 5879 5879 5878 5878 5877 5877 5876 5876 5875 5875 5874 5874 5873 5872 5872 5871 5870 5870 5869 5868 5867 5866 5865 5863 5862 5860 5859 5857
5893 5892 5891 5890 5889 5888 5887 5886 5884 5883 5882 5881 5880 5879 5878 5877 5876 5875 5875 5874 5873 5872 5872 5871 5871 5870 5869 5869 5868 5867 5866 5866 5865 5864 5863 5862 5861 5859 5858 5856 5854 5852 5850
5891 5890 5889 5888 5887 5886 5885 5884 5883 5881 5880 5879 5878 5877 5876 5875 5874 5873 5872 5871 5870 5869 5868 5867 5867 5866 5865 5864 5863 5862 5861 5860 5859 5858 5857 5856 5854 5853 5851 5849 5847 5845 5843
5888 5887 5886 5886 5885 5883 5882 5882 5881 5879 5878 5877 5876 5874 5873 5872 5871 5870 5869 5867 5866 5865 5864 5864 5863 5862 5861 5860 5858 5857 5856 5855 5853 5852 5851 5849 5848 5846 5844 5842 5840 5838 5835
5885 5884 5882 5882 5882 5881 5880 5878 5877 5876 5875 5874 5873 5872 5870 5869 5868 5867 5865 5864 5863 5862 5861 5860 5859 5858 5856 5855 5853 5852 5850 5849 5847 5846 5844 5843 5841 5839 5837 5835 5833 5830 5828
5881 5880 5880 5879 5879 5878 5877 5875 5874 5873 5872 5871 5870 5869 5867 5866 5865 5863 5862 5861 5859 5858 5857 5855 5854 5853 5852 5850 5848 5847 5845 5843 5841 5840 5838 5836 5834 5832 5830 5828 5825 5822 5820
5876 5875 5875 5875 5875 5874 5873 5872 5871 5870 5869 5868 5867 5865 5864 5862 5861 5860 5858 5857 5855 5854 5852 5850 5849 5848 5846 5844 5843 5841 5839 5837 5835 5833 5831 5829 5826 5824 5821 5819 5817 5814 5811
5872 5871 5871 5871 5870 5869 5869 5868 5867 5866 5865 5864 5862 5861 5859 5858 5857 5855 5854 5852 5851 5849 5847 5845 5844 5843 5841 5839 5837 5835 5833 5831 5828 5826 5824 5821 5818 5816 5813 5811 5808 5805 5802
5866 5866 5866 5866 5865 5864 5864 5863 5862 5861 5860 5859 5858 5856 5855 5853 5852 5850 5849 5847 5845 5844 5842 5840 5838 5837 5835 5832 5830 5828 5826 5823 5821 5819 5816 5814 5811 5808 5805 5802 5799 5796 5793
5860 5860 5860 5860 5859 5859 5858 5857 5857 5856 5855 5853 5852 5851 5849 5848 5846 5845 5843 5841 5840 5838 5836 5834 5832 5830 5828 5826 5823 5821 5819 5816 5814 5811 5809 5806 5803 5800 5797 5794 5790 5787 5784
5854 5854 5854 5854 5853 5853 5852 5851 5851 5850 5848 5847 5846 5845 5843 5842 5840 5839 5837 5835 5833 5831 5829 5827 5825 5823 5821 5819 5816 5814 5811 5809 5806 5803 5801 5798 5795 5792 5789 5785 5782 5779 5775
5847 5847 5847 5847 5847 5846 5846 5845 5844 5843 5842 5841 5839 5838 5836 5835 5833 5832 5830 5828 5826 5824 5822 5820 5818 5816 5813 5811 5809 5806 5804 5801 5798 5795 5793 5790 5787 5784 5780 5777 5773 5770 5767
5840 5840 5840 5840 5840 5839 5839 5838 5837 5836 5835 5834 5832 5831 5829 5828 5826 5824 5822 5820 5819 5816 5814 5812 5810 5808 5805 5803 5800 5798 5795 5792 5790 5787 5784 5781 5778 5775 5771 5768 5764 5761 5758